Starlink 35234

operational
NORAD ID: 65601 Int'l Des: 2025-207 Owner: SPXS Country: US Constellation: starlink
NOTLE

Starlink 35234について

説明を読み込み中...

リアルタイム位置

3D地球を読み込み中...

次回通過

高度履歴

Altitude vs Time

uPlot chart will show altitude changes over time

軌道要素

1 65601U 25207K 25354.25003472 -.02356791 00000-0 -91717-1 0 9997
2 65601 97.6035 60.2294 0002327 88.5003 134.1540 15.29897731 5837
Epoch: Dec 20, 2025 • Age: 8 hours

現在のステータス

高度 483.3 km
速度 7.63 km/s
衛星直下点 19.86°N, 49.79°W
打ち上げ日 Sep 13, 2025
運用期間 0.2 years
タイプ internet

技術仕様

分類 Payload
質量 575.00 kg
乾燥質量 530.00 kg
総質量 575.00 kg
長さ 0.30 m
直径 4.10 m
スパン 29.00 m
形状 Box + pan
製造者 SPXS
バスタイプ Starlink V2MO
フェーズステータス In Orbit
所有者/国 SPXS/US

大規模コンステレーション

Loading constellations...